Time,TemperatureF,DewpointF,PressureIn,WindDirection,WindDirectionDegrees,WindSpeedMPH,WindSpeedGustMPH,Humidity,HourlyPrecipIn,Conditions,Clouds,dailyrainin,SoftwareType,DateUTC
2013-09-04 00:03:00,83.3,73.8,29.66,SSE,158,0.0,0.0,73,0.00,,---,0.00,VWS V13.01,2013-09-04 04:03:00,
2013-09-04 00:08:00,83.1,73.6,29.66,SE,135,0.0,0.0,73,0.00,,---,0.00,VWS V13.01,2013-09-04 04:08:00,
2013-09-04 00:18:00,83.1,74.0,29.65,ESE,112,0.0,0.0,74,0.00,,---,0.00,VWS V13.01,2013-09-04 04:18:00,
2013-09-04 00:28:00,83.1,74.0,29.65,South,180,6.9,6.9,74,0.00,,---,0.00,VWS V13.01,2013-09-04 04:28:00,
2013-09-04 00:33:00,83.1,74.0,29.65,South,180,6.9,6.9,74,0.00,,---,0.00,VWS V13.01,2013-09-04 04:33:00,
2013-09-04 00:38:00,83.1,74.0,29.65,SSE,158,0.0,6.9,74,0.00,,---,0.00,VWS V13.01,2013-09-04 04:38:00,
2013-09-04 00:43:00,83.1,74.0,29.65,SSE,158,0.0,0.0,74,0.00,,---,0.00,VWS V13.01,2013-09-04 04:43:00,
2013-09-04 00:48:00,83.1,74.0,29.65,ESE,112,0.4,0.4,74,0.00,,---,0.00,VWS V13.01,2013-09-04 04:48:00,
2013-09-04 00:58:00,82.9,73.8,29.65,SE,135,0.0,0.0,74,0.00,,---,0.00,VWS V13.01,2013-09-04 04:58:00,
2013-09-04 01:03:00,82.9,73.8,29.64,SSE,158,0.0,0.0,74,0.00,,---,0.00,VWS V13.01,2013-09-04 05:03:00,
2013-09-04 01:13:00,82.9,73.8,29.64,SSE,158,0.0,0.0,74,0.00,,---,0.00,VWS V13.01,2013-09-04 05:13:00,
2013-09-04 01:18:00,82.8,73.6,29.64,ESE,112,0.0,0.0,74,0.00,,---,0.00,VWS V13.01,2013-09-04 05:18:00,
2013-09-04 01:28:00,82.8,73.2,29.63,SSE,158,0.0,0.0,73,0.00,,---,0.00,VWS V13.01,2013-09-04 05:28:00,
2013-09-04 01:38:00,82.6,72.7,29.63,ESE,112,0.0,0.0,72,0.00,,---,0.00,VWS V13.01,2013-09-04 05:38:00,
2013-09-04 01:44:00,82.6,72.7,29.63,SE,135,0.0,0.0,72,0.00,,---,0.00,VWS V13.01,2013-09-04 05:44:00,
2013-09-04 01:53:00,82.4,72.9,29.63,SSE,158,0.0,0.0,73,0.00,,---,0.00,VWS V13.01,2013-09-04 05:53:00,
2013-09-04 02:03:00,82.2,72.7,29.62,SSE,158,0.0,0.0,73,0.00,,---,0.00,VWS V13.01,2013-09-04 06:03:00,
2013-09-04 02:08:00,82.2,72.7,29.62,SE,135,0.0,0.0,73,0.00,,---,0.00,VWS V13.01,2013-09-04 06:08:00,
2013-09-04 02:13:00,82.2,73.1,29.62,SE,135,0.0,0.0,74,0.00,,---,0.00,VWS V13.01,2013-09-04 06:13:00,
2013-09-04 02:23:00,82.2,73.1,29.61,East,90,0.0,0.0,74,0.00,,---,0.00,VWS V13.01,2013-09-04 06:23:00,
2013-09-04 02:28:00,82.2,73.1,29.61,SSE,158,0.0,0.0,74,0.00,,---,0.00,VWS V13.01,2013-09-04 06:28:00,
2013-09-04 02:38:00,82.2,73.5,29.61,SSE,158,0.0,0.0,75,0.00,,---,0.00,VWS V13.01,2013-09-04 06:38:00,
2013-09-04 02:48:00,82.2,73.1,29.61,SSE,158,0.0,0.0,74,0.00,,---,0.00,VWS V13.01,2013-09-04 06:48:00,
2013-09-04 02:58:00,82.2,73.5,29.60,East,90,0.0,0.0,75,0.00,,---,0.00,VWS V13.01,2013-09-04 06:58:00,
2013-09-04 03:03:00,82.2,73.1,29.60,ESE,112,3.1,3.1,74,0.00,,---,0.00,VWS V13.01,2013-09-04 07:03:00,
2013-09-04 03:14:00,82.2,73.5,29.60,ESE,112,0.2,1.6,75,0.00,,---,0.00,VWS V13.01,2013-09-04 07:14:00,
2013-09-04 03:23:00,82.2,73.5,29.61,ENE,68,0.4,1.3,75,0.00,,---,0.00,VWS V13.01,2013-09-04 07:23:00,
2013-09-04 03:33:00,82.4,73.7,29.60,ESE,112,1.3,1.3,75,0.00,,---,0.00,VWS V13.01,2013-09-04 07:33:00,
2013-09-04 03:38:00,82.4,73.7,29.60,East,90,0.0,1.3,75,0.00,,---,0.00,VWS V13.01,2013-09-04 07:38:00,
2013-09-04 03:48:00,82.2,73.5,29.60,East,90,0.0,0.0,75,0.00,,---,0.00,VWS V13.01,2013-09-04 07:48:00,
2013-09-04 03:53:00,82.2,73.5,29.60,ESE,112,0.0,0.0,75,0.00,,---,0.00,VWS V13.01,2013-09-04 07:53:00,
2013-09-04 04:03:00,82.2,73.5,29.60,East,90,0.0,1.1,75,0.00,,---,0.00,VWS V13.01,2013-09-04 08:03:00,
2013-09-04 04:13:00,82.2,73.1,29.60,ESE,112,0.4,0.4,74,0.00,,---,0.00,VWS V13.01,2013-09-04 08:13:00,
2013-09-04 04:18:00,82.2,73.1,29.60,East,90,0.0,1.1,74,0.00,,---,0.00,VWS V13.01,2013-09-04 08:18:00,
2013-09-04 04:23:00,82.2,73.1,29.60,ESE,112,0.0,0.0,74,0.00,,---,0.00,VWS V13.01,2013-09-04 08:23:00,
2013-09-04 04:33:00,82.6,73.5,29.60,ESE,112,0.2,1.8,74,0.00,,---,0.00,VWS V13.01,2013-09-04 08:33:00,
2013-09-04 04:43:00,82.4,73.7,29.60,East,90,0.0,0.9,75,0.00,,---,0.00,VWS V13.01,2013-09-04 08:43:00,
2013-09-04 04:53:00,82.4,73.7,29.60,ESE,112,0.0,0.0,75,0.00,,---,0.00,VWS V13.01,2013-09-04 08:53:00,
2013-09-04 05:03:00,82.6,73.9,29.60,East,90,0.7,0.7,75,0.00,,---,0.00,VWS V13.01,2013-09-04 09:03:00,
2013-09-04 05:13:00,82.6,73.9,29.60,ENE,68,0.7,0.7,75,0.00,,---,0.00,VWS V13.01,2013-09-04 09:13:00,
2013-09-04 05:23:00,82.6,73.9,29.60,ESE,112,4.0,4.0,75,0.00,,---,0.00,VWS V13.01,2013-09-04 09:23:00,
2013-09-04 05:33:00,82.6,73.9,29.60,East,90,0.7,0.7,75,0.00,,---,0.00,VWS V13.01,2013-09-04 09:33:00,
2013-09-04 05:43:00,82.6,73.9,29.61,ESE,112,0.0,0.0,75,0.00,,---,0.00,VWS V13.01,2013-09-04 09:43:00,
2013-09-04 05:53:00,82.6,73.9,29.61,ENE,68,0.0,0.7,75,0.00,,---,0.00,VWS V13.01,2013-09-04 09:53:00,
2013-09-04 05:58:00,82.6,73.9,29.61,ENE,68,1.6,1.6,75,0.00,,---,0.00,VWS V13.01,2013-09-04 09:58:00,
2013-09-04 06:03:00,82.6,73.9,29.61,SE,135,0.0,1.6,75,0.00,,---,0.00,VWS V13.01,2013-09-04 10:03:00,
2013-09-04 06:13:00,82.8,74.0,29.62,East,90,0.7,0.7,75,0.00,,---,0.00,VWS V13.01,2013-09-04 10:13:00,
2013-09-04 06:18:00,82.8,74.0,29.62,East,90,0.7,0.7,75,0.00,,---,0.00,VWS V13.01,2013-09-04 10:18:00,
2013-09-04 06:28:00,82.8,74.0,29.63,NE,45,0.0,1.3,75,0.00,,---,0.00,VWS V13.01,2013-09-04 10:28:00,
2013-09-04 06:34:00,82.8,74.0,29.63,East,90,0.0,4.7,75,0.00,,---,0.00,VWS V13.01,2013-09-04 10:34:00,
2013-09-04 06:43:00,82.8,74.0,29.63,East,90,0.0,1.1,75,0.00,,---,0.00,VWS V13.01,2013-09-04 10:43:00,
2013-09-04 06:53:00,82.9,74.2,29.63,ENE,68,2.7,2.7,75,0.00,,---,0.00,VWS V13.01,2013-09-04 10:53:00,
2013-09-04 07:03:00,82.9,74.2,29.63,East,90,0.2,0.2,75,0.00,,---,0.00,VWS V13.01,2013-09-04 11:03:00,
2013-09-04 07:13:00,82.9,74.2,29.63,East,90,0.7,2.9,75,0.00,,---,0.00,VWS V13.01,2013-09-04 11:13:00,
2013-09-04 07:23:00,82.9,74.2,29.64,ENE,68,0.0,7.8,75,0.00,,---,0.00,VWS V13.01,2013-09-04 11:23:00,
2013-09-04 07:33:00,82.9,74.2,29.64,ENE,68,0.4,0.4,75,0.00,,---,0.00,VWS V13.01,2013-09-04 11:33:00,
2013-09-04 07:43:00,82.9,74.2,29.65,ENE,68,0.0,0.2,75,0.00,,---,0.00,VWS V13.01,2013-09-04 11:43:00,
2013-09-04 07:48:00,83.1,74.4,29.65,NE,45,1.6,1.6,75,0.00,,---,0.00,VWS V13.01,2013-09-04 11:48:00,
2013-09-04 07:58:00,83.1,74.0,29.65,ENE,68,0.0,2.0,74,0.00,,---,0.00,VWS V13.01,2013-09-04 11:58:00,
2013-09-04 08:03:00,83.3,74.2,29.65,ENE,68,0.0,0.0,74,0.00,,---,0.00,VWS V13.01,2013-09-04 12:03:00,
2013-09-04 08:13:00,83.3,74.6,29.66,ESE,112,4.3,4.3,75,0.00,,---,0.00,VWS V13.01,2013-09-04 12:13:00,
2013-09-04 08:18:00,83.3,74.2,29.66,NE,45,2.0,4.3,74,0.00,,---,0.00,VWS V13.01,2013-09-04 12:18:00,
2013-09-04 08:23:00,83.8,74.7,29.66,ESE,112,6.0,6.0,74,0.00,,---,0.00,VWS V13.01,2013-09-04 12:23:00,
2013-09-04 08:33:00,83.8,74.3,29.66,ENE,68,1.8,6.0,73,0.00,,---,0.00,VWS V13.01,2013-09-04 12:33:00,
2013-09-04 08:43:00,84.0,74.0,29.67,East,90,0.7,1.3,72,0.00,,---,0.00,VWS V13.01,2013-09-04 12:43:00,
2013-09-04 08:48:00,84.0,74.4,29.67,ESE,112,0.9,0.9,73,0.00,,---,0.00,VWS V13.01,2013-09-04 12:48:00,
2013-09-04 08:58:00,84.2,74.6,29.68,ESE,112,3.6,3.6,73,0.00,,---,0.00,VWS V13.01,2013-09-04 12:58:00,
2013-09-04 09:03:00,84.4,74.8,29.68,East,90,1.8,3.6,73,0.00,,---,0.00,VWS V13.01,2013-09-04 13:03:00,
2013-09-04 09:08:00,84.4,74.4,29.67,East,90,0.0,1.8,72,0.00,,---,0.00,VWS V13.01,2013-09-04 13:08:00,
2013-09-04 09:18:00,84.4,74.8,29.68,ENE,68,0.2,4.3,73,0.00,,---,0.00,VWS V13.01,2013-09-04 13:18:00,
2013-09-04 09:28:00,84.4,74.8,29.68,East,90,1.8,3.1,73,0.00,,---,0.00,VWS V13.01,2013-09-04 13:28:00,
2013-09-04 09:38:00,84.6,75.4,29.69,ESE,112,0.7,1.8,74,0.00,,---,0.00,VWS V13.01,2013-09-04 13:38:00,
2013-09-04 09:48:00,84.7,75.5,29.69,East,90,0.0,1.6,74,0.00,,---,0.00,VWS V13.01,2013-09-04 13:48:00,
2013-09-04 09:58:00,84.7,75.5,29.69,SE,135,0.0,0.0,74,0.00,,---,0.00,VWS V13.01,2013-09-04 13:58:00,
2013-09-04 10:08:00,84.7,75.1,29.69,ENE,68,1.1,6.0,73,0.00,,---,0.00,VWS V13.01,2013-09-04 14:08:00,
2013-09-04 10:13:00,84.7,75.1,29.71,ENE,68,5.4,5.4,73,0.00,,---,0.00,VWS V13.01,2013-09-04 14:13:00,
2013-09-04 10:23:00,84.7,75.1,29.71,SSE,158,2.9,4.9,73,0.00,,---,0.00,VWS V13.01,2013-09-04 14:23:00,
2013-09-04 10:33:00,83.7,74.1,29.71,SSW,202,7.6,11.0,73,0.00,,---,0.00,VWS V13.01,2013-09-04 14:33:00,
2013-09-04 10:38:00,82.9,73.8,29.71,SSW,202,0.0,7.6,74,0.00,,---,0.00,VWS V13.01,2013-09-04 14:38:00,
2013-09-04 10:48:00,82.4,73.3,29.71,SSE,158,0.0,0.0,74,0.00,,---,0.00,VWS V13.01,2013-09-04 14:48:00,
2013-09-04 10:58:00,82.2,73.9,29.72,ESE,112,0.0,0.0,76,0.00,,---,0.00,VWS V13.01,2013-09-04 14:58:00,
2013-09-04 11:08:00,82.2,74.3,29.71,ESE,112,0.0,0.2,77,0.00,,---,0.00,VWS V13.01,2013-09-04 15:08:00,
2013-09-04 11:13:00,82.2,74.3,29.71,East,90,0.0,0.0,77,0.00,,---,0.00,VWS V13.01,2013-09-04 15:13:00,
2013-09-04 11:23:00,82.4,74.5,29.71,ESE,112,0.0,0.0,77,0.00,,---,0.00,VWS V13.01,2013-09-04 15:23:00,
2013-09-04 11:28:00,82.6,74.6,29.72,ESE,112,0.0,0.0,77,0.00,,---,0.00,VWS V13.01,2013-09-04 15:28:00,
2013-09-04 11:33:00,82.6,75.0,29.71,ESE,112,1.1,1.1,78,0.00,,---,0.00,VWS V13.01,2013-09-04 15:33:00,
2013-09-04 11:43:00,82.4,73.7,29.70,NE,45,3.1,6.5,75,0.00,,---,0.00,VWS V13.01,2013-09-04 15:43:00,
2013-09-04 11:53:00,82.0,72.9,29.70,ESE,112,2.7,9.2,74,0.00,,---,0.00,VWS V13.01,2013-09-04 15:53:00,
2013-09-04 12:03:00,82.0,72.1,29.71,ESE,112,0.9,2.5,72,0.00,,---,0.00,VWS V13.01,2013-09-04 16:03:00,
2013-09-04 12:08:00,82.2,72.3,29.71,ESE,112,0.9,0.9,72,0.00,,---,0.00,VWS V13.01,2013-09-04 16:08:00,
2013-09-04 12:18:00,82.6,73.1,29.71,SE,135,0.0,0.2,73,0.00,,---,0.00,VWS V13.01,2013-09-04 16:18:00,
2013-09-04 12:23:00,82.9,73.8,29.70,SSE,158,0.0,1.6,74,0.00,,---,0.00,VWS V13.01,2013-09-04 16:23:00,
2013-09-04 12:33:00,83.5,74.3,29.70,SSE,158,0.4,0.4,74,0.00,,---,0.00,VWS V13.01,2013-09-04 16:33:00,
2013-09-04 12:43:00,84.0,74.8,29.70,SE,135,3.4,3.4,74,0.00,,---,0.00,VWS V13.01,2013-09-04 16:43:00,
2013-09-04 12:49:00,84.0,74.8,29.70,SE,135,3.4,3.4,74,0.00,,---,0.00,VWS V13.01,2013-09-04 16:49:00,
2013-09-04 12:58:00,84.6,75.0,29.70,South,180,0.0,0.0,73,0.00,,---,0.00,VWS V13.01,2013-09-04 16:58:00,
2013-09-04 13:03:00,84.9,75.7,29.70,ESE,112,0.0,0.0,74,0.00,,---,0.00,VWS V13.01,2013-09-04 17:03:00,
2013-09-04 13:08:00,84.9,75.3,29.69,ESE,112,0.0,0.0,73,0.00,,---,0.00,VWS V13.01,2013-09-04 17:08:00,
2013-09-04 13:18:00,85.3,75.7,29.69,East,90,2.7,2.7,73,0.00,,---,0.00,VWS V13.01,2013-09-04 17:18:00,
2013-09-04 13:23:00,85.5,75.4,29.68,SSE,158,0.0,2.7,72,0.00,,---,0.00,VWS V13.01,2013-09-04 17:23:00,
2013-09-04 13:28:00,85.3,75.2,29.68,East,90,0.0,0.0,72,0.00,,---,0.00,VWS V13.01,2013-09-04 17:28:00,
2013-09-04 13:38:00,85.3,75.7,29.68,East,90,0.0,3.6,73,0.00,,---,0.00,VWS V13.01,2013-09-04 17:38:00,
2013-09-04 13:43:00,85.5,75.8,29.68,SE,135,0.0,1.1,73,0.00,,---,0.00,VWS V13.01,2013-09-04 17:43:00,
2013-09-04 13:48:00,85.6,76.0,29.68,ESE,112,1.8,1.8,73,0.00,,---,0.00,VWS V13.01,2013-09-04 17:48:00,
2013-09-04 13:58:00,86.2,76.5,29.68,ENE,68,2.5,2.5,73,0.00,,---,0.00,VWS V13.01,2013-09-04 17:58:00,
2013-09-04 14:03:00,86.0,75.9,29.69,ENE,68,0.0,2.5,72,0.00,,---,0.00,VWS V13.01,2013-09-04 18:03:00,
2013-09-04 14:08:00,86.2,76.1,29.69,ENE,68,0.0,0.0,72,0.00,,---,0.00,VWS V13.01,2013-09-04 18:08:00,
2013-09-04 14:18:00,86.4,76.3,29.68,ESE,112,0.0,0.0,72,0.00,,---,0.00,VWS V13.01,2013-09-04 18:18:00,
2013-09-04 14:28:00,86.7,76.2,29.68,East,90,1.3,1.3,71,0.00,,---,0.00,VWS V13.01,2013-09-04 18:28:00,
2013-09-04 14:33:00,86.7,76.2,29.68,East,90,1.3,1.3,71,0.00,,---,0.00,VWS V13.01,2013-09-04 18:33:00,
2013-09-04 14:43:00,86.5,76.0,29.67,ESE,112,0.0,0.2,71,0.00,,---,0.00,VWS V13.01,2013-09-04 18:43:00,
2013-09-04 14:53:00,86.4,75.8,29.66,ESE,112,0.4,4.0,71,0.00,,---,0.00,VWS V13.01,2013-09-04 18:53:00,
2013-09-04 14:58:00,86.5,76.0,29.66,SSE,158,0.0,0.4,71,0.00,,---,0.00,VWS V13.01,2013-09-04 18:58:00,
2013-09-04 15:08:00,86.5,76.0,29.66,ESE,112,0.0,0.0,71,0.00,,---,0.00,VWS V13.01,2013-09-04 19:08:00,
2013-09-04 15:18:00,86.5,76.0,29.66,SE,135,0.0,0.0,71,0.00,,---,0.00,VWS V13.01,2013-09-04 19:18:00,
2013-09-04 15:23:00,86.7,76.2,29.66,ESE,112,0.0,2.0,71,0.00,,---,0.00,VWS V13.01,2013-09-04 19:23:00,
2013-09-04 15:33:00,86.4,75.8,29.66,ESE,112,4.0,4.0,71,0.00,,---,0.00,VWS V13.01,2013-09-04 19:33:00,
2013-09-04 15:38:00,86.2,75.7,29.66,ESE,112,1.8,4.0,71,0.00,,---,0.00,VWS V13.01,2013-09-04 19:38:00,
2013-09-04 15:43:00,86.0,75.5,29.66,ENE,68,6.7,6.7,71,0.00,,---,0.00,VWS V13.01,2013-09-04 19:43:00,
2013-09-04 15:53:00,85.8,75.8,29.66,SE,135,1.6,3.6,72,0.00,,---,0.00,VWS V13.01,2013-09-04 19:53:00,
2013-09-04 16:03:00,85.8,75.3,29.66,NE,45,0.0,2.9,71,0.00,,---,0.00,VWS V13.01,2013-09-04 20:03:00,
2013-09-04 16:08:00,85.8,75.3,29.65,East,90,2.0,2.0,71,0.00,,---,0.00,VWS V13.01,2013-09-04 20:08:00,
2013-09-04 16:18:00,85.8,75.8,29.65,ESE,112,4.0,4.0,72,0.00,,---,0.00,VWS V13.01,2013-09-04 20:18:00,
2013-09-04 16:23:00,85.8,75.8,29.65,East,90,0.0,4.0,72,0.00,,---,0.00,VWS V13.01,2013-09-04 20:23:00,
2013-09-04 16:33:00,85.8,75.8,29.66,NE,45,0.4,2.0,72,0.00,,---,0.00,VWS V13.01,2013-09-04 20:33:00,
2013-09-04 16:43:00,86.0,75.9,29.66,NE,45,0.0,1.6,72,0.00,,---,0.00,VWS V13.01,2013-09-04 20:43:00,
2013-09-04 16:48:00,86.2,76.1,29.66,SE,135,0.7,0.7,72,0.00,,---,0.00,VWS V13.01,2013-09-04 20:48:00,
2013-09-04 16:58:00,85.8,75.3,29.66,ENE,68,0.0,2.2,71,0.00,,---,0.00,VWS V13.01,2013-09-04 20:58:00,
2013-09-04 17:08:00,85.8,74.9,29.66,NE,45,0.9,0.9,70,0.00,,---,0.00,VWS V13.01,2013-09-04 21:08:00,
2013-09-04 17:18:00,85.8,74.9,29.65,NE,45,2.7,2.7,70,0.00,,---,0.00,VWS V13.01,2013-09-04 21:18:00,
2013-09-04 17:28:00,85.8,74.9,29.65,ENE,68,2.2,2.2,70,0.00,,---,0.00,VWS V13.01,2013-09-04 21:28:00,
2013-09-04 17:38:00,85.8,74.9,29.65,ESE,112,4.9,4.9,70,0.00,,---,0.00,VWS V13.01,2013-09-04 21:38:00,
2013-09-04 17:48:00,85.8,74.9,29.65,ENE,68,0.4,5.8,70,0.00,,---,0.00,VWS V13.01,2013-09-04 21:48:00,
2013-09-04 17:58:00,85.6,74.7,29.65,ENE,68,3.8,3.8,70,0.00,,---,0.00,VWS V13.01,2013-09-04 21:58:00,
2013-09-04 18:03:00,85.6,74.7,29.65,East,90,0.0,3.8,70,0.00,,---,0.00,VWS V13.01,2013-09-04 22:03:00,
2013-09-04 18:13:00,85.3,74.4,29.65,ENE,68,0.0,2.5,70,0.00,,---,0.00,VWS V13.01,2013-09-04 22:13:00,
2013-09-04 18:18:00,85.3,74.4,29.65,East,90,0.0,0.0,70,0.00,,---,0.00,VWS V13.01,2013-09-04 22:18:00,
2013-09-04 18:23:00,85.3,74.4,29.65,East,90,0.0,0.0,70,0.00,,---,0.00,VWS V13.01,2013-09-04 22:23:00,
2013-09-04 18:33:00,85.1,74.6,29.66,ENE,68,1.1,1.1,71,0.00,,---,0.00,VWS V13.01,2013-09-04 22:33:00,
2013-09-04 18:38:00,85.3,74.8,29.66,ESE,112,0.0,2.5,71,0.00,,---,0.00,VWS V13.01,2013-09-04 22:38:00,
2013-09-04 18:43:00,85.1,74.6,29.65,ESE,112,0.0,0.0,71,0.00,,---,0.00,VWS V13.01,2013-09-04 22:43:00,
2013-09-04 18:53:00,84.9,74.5,29.65,ENE,68,0.0,2.2,71,0.00,,---,0.00,VWS V13.01,2013-09-04 22:53:00,
2013-09-04 19:03:00,84.7,74.7,29.65,ENE,68,0.0,0.7,72,0.00,,---,0.00,VWS V13.01,2013-09-04 23:03:00,
2013-09-04 19:08:00,84.7,74.7,29.65,East,90,0.7,0.9,72,0.00,,---,0.00,VWS V13.01,2013-09-04 23:08:00,
2013-09-04 19:18:00,84.6,74.5,29.66,East,90,0.0,0.0,72,0.00,,---,0.00,VWS V13.01,2013-09-04 23:18:00,
2013-09-04 19:28:00,84.4,74.8,29.65,ENE,68,2.5,2.5,73,0.00,,---,0.00,VWS V13.01,2013-09-04 23:28:00,
2013-09-04 19:33:00,84.4,74.4,29.65,East,90,2.7,2.7,72,0.00,,---,0.00,VWS V13.01,2013-09-04 23:33:00,
2013-09-04 19:38:00,84.0,74.0,29.66,ENE,68,0.0,2.7,72,0.00,,---,0.00,VWS V13.01,2013-09-04 23:38:00,
2013-09-04 19:48:00,84.0,74.0,29.67,ENE,68,1.8,1.8,72,0.00,,---,0.00,VWS V13.01,2013-09-04 23:48:00,
2013-09-04 19:58:00,83.8,73.8,29.67,ESE,112,0.4,0.4,72,0.00,,---,0.00,VWS V13.01,2013-09-04 23:58:00,
2013-09-04 20:08:00,83.8,73.8,29.67,ENE,68,0.0,0.9,72,0.00,,---,0.00,VWS V13.01,2013-09-05 00:08:00,
2013-09-04 20:13:00,83.8,73.8,29.67,ESE,112,0.0,0.0,72,0.00,,---,0.00,VWS V13.01,2013-09-05 00:13:00,
2013-09-04 20:23:00,83.5,74.3,29.68,ENE,68,0.0,1.8,74,0.00,,---,0.00,VWS V13.01,2013-09-05 00:23:00,
2013-09-04 20:33:00,83.5,74.3,29.68,ENE,68,0.0,0.7,74,0.00,,---,0.00,VWS V13.01,2013-09-05 00:33:00,
2013-09-04 20:38:00,83.5,74.3,29.68,ENE,68,0.0,0.0,74,0.00,,---,0.00,VWS V13.01,2013-09-05 00:38:00,
2013-09-04 20:48:00,83.5,74.3,29.68,ESE,112,1.1,1.1,74,0.00,,---,0.00,VWS V13.01,2013-09-05 00:48:00,
2013-09-04 20:58:00,83.5,74.3,29.69,ENE,68,0.0,0.0,74,0.00,,---,0.00,VWS V13.01,2013-09-05 00:58:00,
2013-09-04 21:08:00,83.5,74.3,29.70,East,90,0.0,0.4,74,0.00,,---,0.00,VWS V13.01,2013-09-05 01:08:00,
2013-09-04 21:18:00,83.3,74.2,29.69,East,90,6.5,6.5,74,0.00,,---,0.00,VWS V13.01,2013-09-05 01:18:00,
2013-09-04 21:23:00,83.3,74.2,29.70,NE,45,0.0,6.5,74,0.00,,---,0.00,VWS V13.01,2013-09-05 01:23:00,
2013-09-04 21:28:00,83.3,74.2,29.70,ENE,68,0.4,1.6,74,0.00,,---,0.00,VWS V13.01,2013-09-05 01:28:00,
2013-09-04 21:38:00,83.1,74.0,29.71,ENE,68,0.7,0.7,74,0.00,,---,0.00,VWS V13.01,2013-09-05 01:38:00,
2013-09-04 21:48:00,83.1,74.0,29.71,East,90,0.4,0.4,74,0.00,,---,0.00,VWS V13.01,2013-09-05 01:48:00,
2013-09-04 21:53:00,83.1,74.0,29.71,ENE,68,2.0,2.0,74,0.00,,---,0.00,VWS V13.01,2013-09-05 01:53:00,
2013-09-04 22:03:00,83.1,74.0,29.71,ENE,68,0.2,2.5,74,0.00,,---,0.00,VWS V13.01,2013-09-05 02:03:00,
2013-09-04 22:08:00,83.1,74.0,29.71,NE,45,1.1,1.1,74,0.00,,---,0.00,VWS V13.01,2013-09-05 02:08:00,
2013-09-04 22:18:00,83.1,74.0,29.71,ENE,68,0.0,2.2,74,0.00,,---,0.00,VWS V13.01,2013-09-05 02:18:00,
2013-09-04 22:23:00,83.1,74.0,29.71,NE,45,3.4,3.4,74,0.00,,---,0.00,VWS V13.01,2013-09-05 02:23:00,
2013-09-04 22:33:00,83.1,74.0,29.71,NE,45,0.0,0.0,74,0.00,,---,0.00,VWS V13.01,2013-09-05 02:33:00,
2013-09-04 22:38:00,83.1,74.0,29.71,ENE,68,0.0,0.0,74,0.00,,---,0.00,VWS V13.01,2013-09-05 02:38:00,
2013-09-04 22:48:00,83.1,74.0,29.71,ENE,68,4.0,4.0,74,0.00,,---,0.00,VWS V13.01,2013-09-05 02:48:00,
2013-09-04 22:58:00,82.9,73.8,29.71,ENE,68,2.5,2.5,74,0.00,,---,0.00,VWS V13.01,2013-09-05 02:58:00,
2013-09-04 23:08:00,82.9,73.4,29.71,ENE,68,4.3,7.8,73,0.00,,---,0.00,VWS V13.01,2013-09-05 03:08:00,
2013-09-04 23:18:00,82.9,73.4,29.71,NE,45,1.1,1.1,73,0.00,,---,0.00,VWS V13.01,2013-09-05 03:18:00,
2013-09-04 23:23:00,82.9,73.4,29.71,ESE,112,3.6,3.6,73,0.00,,---,0.00,VWS V13.01,2013-09-05 03:23:00,
2013-09-04 23:28:00,82.9,73.0,29.71,East,90,1.6,3.6,72,0.00,,---,0.00,VWS V13.01,2013-09-05 03:28:00,
2013-09-04 23:38:00,82.9,73.0,29.71,ENE,68,0.0,0.0,72,0.00,,---,0.00,VWS V13.01,2013-09-05 03:38:00,
2013-09-04 23:43:00,82.9,73.0,29.71,ENE,68,0.0,0.0,72,0.00,,---,0.00,VWS V13.01,2013-09-05 03:43:00,
2013-09-04 23:53:00,82.9,73.4,29.71,NE,45,1.3,5.8,73,0.00,,---,0.00,VWS V13.01,2013-09-05 03:53:00,